Regional Weather Roundup
Issued by NWS Jackson, KY

Home | Current Version | Previous Version | Text Only | Print | Product List | Glossary On
Versions: 1 2 3 4 5 6 7 8 9 10 11 12 13 14 15 16 17 18 19 20 21 22 23 24 25 26 27 28 29 30 31 32 33 34 35 36 37 38 39 40 41 42 43 44 45 46 47 48 49 50
000
ASUS43 KJKL 020210
RWRJKL

EAST KENTUCKY HOURLY WEATHER ROUNDUP
NATIONAL WEATHER SERVICE JACKSON KY
1000 PM EDT TUE SEP 01 2015

NOTE: "FAIR" INDICATES FEW OR NO CLOUDS BELOW 12,000 FEET WITH
NO SIGNIFICANT WEATHER AND/OR OBSTRUCTIONS TO VISIBILITY.

* THESE REPORTS ARE NOT UNDER NWS QUALITY CONTROL AND MAY NOT
  REPORT WEATHER SUCH AS PRECIPITATION AND FOG.

KYZ079-080-083-085-087-088-110-112-115-119-120-020300
...EASTERN KENTUCKY...

CITY           SKY/WX    TMP DP  RH WIND       PRES   REMARKS
JACKSON        PTCLDY    78  63  59 NW3       30.15R
LONDON         MOCLDY    74  66  76 CALM      30.14R
SOMERSET*      MOCLDY    72  70  94 CALM      30.14R
MONTICELLO*    MOCLDY    71  71 100 CALM      30.16R
MIDDLESBORO*   PTCLDY    73  68  87 CALM      30.15R
HARLAN APT*      N/A     72  68  88 MISG      30.17R
HAZARD APT*    CLEAR     73  72  94 CALM      30.15
BLACK MTN*       N/A     66  63  88 CALM        N/A
PIKEVILLE APT* CLOUDY    77  66  69 CALM      30.15R
BIG SANDY*     PTCLDY    74  69  83 CALM      30.14S
MOREHEAD APT*  PTCLDY    73  68  83 CALM      30.15R
$$

KYZ035-036-041-042-044-050-067-078-099-020300
...CENTRAL KENTUCKY...

CITY           SKY/WX    TMP DP  RH WIND       PRES   REMARKS
MT STERLING*   MOCLDY    72  72 100 CALM      30.15R
FLEMING/MASON* CLEAR     75  66  73 CALM      30.13R
DANVILLE*      MOCLDY    72  70  94 CALM      30.14R
RICHMOND*      MOCLDY    72  64  78 CALM      30.12S
LEXINGTON      PTCLDY    76  67  73 CALM      30.13R
FRANKFORT      PTCLDY    73  66  78 CALM      30.11R
$$

KYZ091>093-OHZ055-061-077-WVZ005-015-034-035-042-020300
...SOUTHERN OHIO/WEST VIRGINIA...

CITY           SKY/WX    TMP DP  RH WIND       PRES   REMARKS
COVINGTON      PTCLDY    76  67  73 W3        30.11R
COLUMBUS       MOCLDY    78  68  71 W6        30.10R
DAYTON         MOCLDY    76  68  76 S3        30.12S
WILMINGTON     PTCLDY    73  65  75 NE5       30.12R
HUNTINGTON     MOCLDY    74  69  85 CALM      30.11R
CHARLESTON     MOCLDY    74  68  81 CALM      30.12R
PINEVILLE*     PTCLDY    69  69 100 MISG      30.22S FOG
BECKLEY        PTCLDY    70  63  78 CALM      30.21R
BLUEFIELD      PTCLDY    73  61  65 CALM      30.24R
$$

VAZ002-007-008-TNZ017-027-036-066-071-020300
...SOUTHWEST VIRGINIA/EAST TENNESSEE...

CITY           SKY/WX    TMP DP  RH WIND       PRES   REMARKS
WISE*          MOCLDY    72  61  68 CALM      30.23S
JONESVILLE*    MOCLDY    72  68  88 CALM      30.17R
ABINGDON*      CLEAR     72  66  81 CALM      30.18S
BRISTOL        PTCLDY    73  68  84 CALM      30.14R
KNOXVILLE      MOCLDY    77  68  73 SW3       30.11R
OAK RIDGE      PTCLDY    76  69  79 CALM      30.13R
CROSSVILLE     PTCLDY    72  68  87 CALM      30.18R
NASHVILLE      MOCLDY    79  67  66 CALM      30.10S
$$

...KEY TO REMARKS...
VSB - VISIBILITY IN MILES
WCI - WIND CHILL INDEX
HX  - HEAT INDEX

$$



USA.gov is the U.S. government's official web portal to all federal, state and local government web resources and services.